Printer-friendly version
Follow the MPC on Twitter Follow the MPC on Facebook The MPC blog
Minor Planet Center

MPEC 2000-Y08 : 2000 XH47

The following Minor Planet Electronic Circular may be linked-to from your own Web pages, but must not otherwise be redistributed electronically.

A form allowing access to any MPEC is at the bottom of this page.


Read MPEC 2000-Y07 Read MPEC 2000-Y09


M.P.E.C. 2000-Y08                                Issued 2000 Dec. 19, 01:21 UT

     The Minor Planet Electronic Circulars contain information on unusual
         minor planets and routine data on comets.  They are published
   on behalf of Commission 20 of the International Astronomical Union by the
          Minor Planet Center, Smithsonian Astrophysical Observatory,
                          Cambridge, MA 02138, U.S.A.

             Prepared using the Tamkin Foundation Computer Network

                              MPC@CFA.HARVARD.EDU
          URL http://cfa-www.harvard.edu/iau/mpc.html  ISSN 1523-6714

                                   2000 XH47

Observations:
     K00X47H* C2000 12 15.22535 05 25 22.54 +62 49 10.7          17.7        704
     K00X47H  C2000 12 15.24048 05 25 20.79 +62 48 23.1          18.3        704
     K00X47H  C2000 12 15.25593 05 25 18.96 +62 47 36.3          18.1        704
     K00X47H  C2000 12 15.27133 05 25 17.28 +62 46 48.5          18.0        704
     K00X47H  C2000 12 16.20647 05 23 51.73 +61 57 31.0          17.9        704
     K00X47H  C2000 12 16.22106 05 23 50.16 +61 56 45.1          18.4        704
     K00X47H  C2000 12 16.22205 05 23 50.01 +61 56 42.5          18.1        704
     K00X47H  C2000 12 16.23622 05 23 48.58 +61 55 57.2          18.7        704
     K00X47H  C2000 12 16.23774 05 23 48.32 +61 55 53.1          18.2        704
     K00X47H  C2000 12 16.25231 05 23 46.81 +61 55 06.7          18.9        704
     K00X47H  C2000 12 16.25332 05 23 46.76 +61 55 03.3          18.3        704
     K00X47H  C2000 12 16.26878 05 23 44.87 +61 54 13.5          18.9        704
     K00X47H  C2000 12 16.27228 05 23 44.54 +61 54 02.6          18.7        704
     K00X47H  C2000 12 16.28534 05 23 43.15 +61 53 21.3          18.7        704
     K00X47H  C2000 12 16.77527 05 23 02.15 +61 26 52.0          17.9 R      046
     K00X47H  C2000 12 16.77633 05 23 02.01 +61 26 48.5                      046
     K00X47H  C2000 12 16.77741 05 23 01.92 +61 26 44.2                      046
     K00X47H  C2000 12 16.77847 05 23 01.87 +61 26 41.2                      046
     K00X47H  C2000 12 16.77954 05 23 01.55 +61 26 37.6          18.1 R      046
     K00X47H  C2000 12 16.79618 05 22 55.60 +61 25 48.5                      327
     K00X47H  C2000 12 16.79938 05 22 55.52 +61 25 38.8          19.1        327
     K00X47H  C2000 12 16.80268 05 22 55.19 +61 25 29.2                      327
     K00X47H  C2000 12 16.80597 05 22 54.82 +61 25 15.9                      327
     K00X47H  C2000 12 17.21114 05 22 23.95 +61 03 30.3          17.5        704
     K00X47H  C2000 12 17.22653 05 22 22.39 +61 02 40.8          18.4        704
     K00X47H  C2000 12 17.24193 05 22 20.75 +61 01 51.3          18.7        704
     K00X47H  C2000 12 17.25734 05 22 19.18 +61 01 01.3          18.3        704
     K00X47H  C2000 12 17.27277 05 22 17.58 +61 00 11.1          18.7        704
     K00X47H  C2000 12 17.73742 05 21 41.36 +60 34 29.2                      557
     K00X47H  C2000 12 17.73899 05 21 41.24 +60 34 24.0                      557
     K00X47H  C2000 12 17.74218 05 21 40.99 +60 34 14.0                      557
     K00X47H  C2000 12 17.88981 05 21 27.81 +60 26 18.7          17.9 R      587
     K00X47H  C2000 12 17.89306 05 21 27.39 +60 26 09.0                      587
     K00X47H  C2000 12 17.92159 05 21 24.70 +60 24 33.4                      611
     K00X47H  C2000 12 17.92416 05 21 24.47 +60 24 24.7                      611
     K00X47H  C2000 12 17.93039 05 21 23.91 +60 24 04.5                      611
     K00X47H  C2000 12 17.93314 05 21 23.57 +60 23 56.1                      611

Observer details:
046 Klet.  Observers J. Ticha, M. Tichy.  0.57-m f/5.2 reflector + CCD.
327 Peking Observatory, Xinglong Station.  Observers J. Zhu, C. H. Liu.  0.6-m
    Schmidt + CCD.
557 Ondrejov.  Observer L. Sarounova.  0.65-m f/3.6 reflector + CCD.
587 Sormano.  Observers F. Manca.  0.5-m reflector + CCD.
611 Starkenburg.  Observers M. Busch, S. Kraus, R. Stoss.  0.45-m f/4.4
    reflector + CCD.
704 Lincoln Laboratory ETS, New Mexico.  Observers M. Blythe, F. Shelly,
    M. Bezpalko, R. Huber, L. Manguso, S. Adams.  Measurers J. Stuart,
    R. Sayer, J. B. Evans, H. Viggh.  1.0-m f/2.15 reflector + CCD.

Orbital elements:
2000 XH47
Epoch 2000 Dec. 2.0 TT = JDT 2451880.5                  Williams
M  19.86596              (2000.0)            P               Q
n   0.52083087     Peri.  104.53530     +0.72258312     -0.63920001
a   1.5299300      Node   295.93747     +0.46579510     +0.73157776
e   0.2269382      Incl.   17.02142     +0.51079208     +0.23710195
P   1.89           H   19.3           G   0.15
From 37 observations 2000 Dec. 15-17.

Ephemeris:
2000 XH47                a,e,i = 1.53, 0.23, 17                  q = 1.1827
Date    TT    R. A. (2000) Decl.     Delta      r     Elong.  Phase     V
2000 12 12    05 31.00   +65 30.3    0.315    1.235   137.5    32.6    18.6
2000 12 22    05 16.73   +56 32.6    0.316    1.258   145.9    26.0    18.5
2001 01 01    05 11.43   +46 34.3    0.334    1.283   149.7    22.8    18.5
2001 01 11    05 13.21   +37 13.0    0.372    1.310   146.7    24.3    18.9
2001 01 21    05 19.93   +29 30.7    0.428    1.340   139.8    28.3    19.3
2001 01 31    05 30.22   +23 39.5    0.499    1.370   132.0    32.3    19.8
2001 02 10    05 43.14   +19 22.6    0.583    1.402   124.6    35.4    20.3
2001 02 20    05 57.96   +16 15.6    0.675    1.434   117.9    37.5    20.7
2001 03 02    06 14.25   +13 56.9    0.775    1.467   111.7    38.9    21.1
2001 03 12    06 31.68   +12 09.7    0.880    1.499   106.1    39.6    21.5
2001 03 22    06 49.95   +10 41.8    0.989    1.531   100.9    39.7    21.8
2001 04 01    07 08.89   +09 24.9    1.101    1.562    96.0    39.5    22.0

Gareth V. Williams           (C) Copyright 2000 MPC           M.P.E.C. 2000-Y08

Read MPEC 2000-Y07 Read MPEC 2000-Y09


MPEC number:

Enter an MPEC number in one of the following forms:

  • 1997-B01 (the full form)
  • J97B01 (the packed version of the full form)
  • B01 (the abbreviated form)

Valid HTML 4.01!